[[{"header":{"parameterUnit":"m.s-1","parameterCategory":1,"la1":30.2992,"la2":30.254,"lo1":-89.0895,"lo2":-89.0443,"dy":0.0025,"dx":0.0025,"nx":19,"ny":19,"refTime":"2026-05-05T09:00:00:Z","depth":0,"parameterNumber":2,"parameterNumberName":"U-component_of_WINDS"},"data":[0,0,0,-0.4025,-0.4026,-0.4068,-0.4068,-0.4116,-0.4116,0,0,0,0,0,0,0,0,0,0,0,-0.4008,-0.4008,-0.4025,-0.4026,-0.4068,-0.4068,-0.4116,-0.4116,0,0,0,0,0,0,0,0,0,0,0,-0.4008,-0.4008,-0.4008,-0.4026,-0.4068,-0.4068,-0.4116,-0.4087,0,0,0,0,0,0,0,0,0,0,-0.4047,-0.4026,-0.4008,-0.4008,-0.4026,-0.4068,-0.4068,-0.4085,-0.4089,-0.4094,0,-0.4096,0,-0.4107,-0.4119,-0.4119,0,0,0,-0.403,-0.4023,-0.4039,-0.4008,-0.4027,-0.4068,-0.405,-0.4087,-0.4091,-0.4098,-0.4097,-0.4099,-0.4108,-0.4119,-0.412,-0.4134,-0.4134,0,0,-0.4028,-0.4013,-0.4036,-0.4041,-0.4032,-0.4049,-0.4052,-0.4089,-0.4088,-0.4097,-0.41,-0.4108,-0.412,-0.412,-0.4134,-0.4134,0,0,0,-0.4018,-0.4011,-0.4026,-0.4038,-0.4046,-0.405,-0.4053,-0.4086,-0.4092,-0.4101,-0.4109,-0.412,-0.412,-0.4134,-0.4134,-0.4112,0,0,0,-0.4017,-0.4006,-0.4025,-0.4016,-0.4045,-0.4067,-0.4049,-0.409,-0.4094,-0.4109,-0.412,-0.4121,-0.4134,-0.4134,-0.4113,-0.4104,0,0,0,-0.4007,-0.4004,-0.4009,-0.4015,-0.4033,-0.4066,-0.4075,-0.4091,-0.4099,-0.4119,-0.4121,-0.4134,-0.4134,-0.4114,-0.4106,-0.4103,0,0,0,-0.3992,-0.399,-0.4008,-0.4009,-0.4032,-0.4052,-0.4075,-0.4091,-0.4105,-0.412,-0.4134,-0.4134,-0.4114,-0.4107,-0.4104,-0.4098,-0.4094,0,0,-0.3981,-0.3988,-0.399,-0.4007,-0.402,-0.4047,-0.4057,-0.4085,-0.4102,-0.4122,-0.4123,-0.4113,-0.4106,-0.4103,-0.4078,-0.4075,0,0,0,-0.3981,-0.3982,-0.3989,-0.4001,-0.4022,-0.4039,-0.4067,-0.4078,-0.4096,-0.4109,-0.4112,-0.4108,-0.4107,-0.4105,-0.4103,-0.4103,-0.4132,-0.4132,-0.4132,-0.3945,-0.3964,-0.3969,-0.3993,-0.4005,-0.4034,-0.4046,-0.4065,-0.4083,-0.4083,-0.4089,-0.4072,-0.4069,-0.4067,-0.4067,-0.4088,-0.4088,-0.4088,-0.4088,-0.393,-0.3935,-0.3957,-0.3969,-0.3991,-0.4002,-0.403,-0.4042,-0.4056,-0.4069,-0.4069,-0.4081,-0.4062,-0.4064,-0.4087,-0.4087,-0.4087,-0.4087,-0.4087,-0.3909,-0.3914,-0.3926,-0.3946,-0.3959,-0.3985,-0.3997,-0.4016,-0.4035,-0.4035,-0.4044,-0.4045,-0.4047,-0.4038,-0.4038,-0.4038,-0.4038,-0.4038,-0.4038,-0.3881,-0.3895,-0.3902,-0.3923,-0.3933,-0.395,-0.3978,-0.399,-0.4007,-0.4021,-0.4021,-0.4038,-0.4057,-0.4061,-0.4037,-0.4037,-0.4037,-0.4037,-0.4037,-0.3859,-0.3867,-0.3878,-0.3888,-0.3914,-0.3926,-0.395,-0.3972,-0.3984,-0.3989,-0.4007,-0.4017,-0.4026,-0.4028,-0.4032,-0.4002,-0.4002,-0.4002,-0.4002,-0.3841,-0.3847,-0.3862,-0.3877,-0.3894,-0.3917,-0.3929,-0.3951,-0.3976,-0.3985,-0.3992,-0.3998,-0.4,-0.4008,-0.4011,-0.4015,-0.3981,-0.3981,-0.3981,-0.3829,-0.3837,-0.3843,-0.3865,-0.3887,-0.3906,-0.3918,-0.3936,-0.3966,-0.3981,-0.3992,-0.3993,-0.4004,-0.4006,-0.4021,-0.4025,-0.4032,0,0]},{"header":{"parameterUnit":"m.s-1","parameterCategory":1,"la1":30.2992,"la2":30.254,"lo1":-89.0895,"lo2":-89.0443,"dy":0.0025,"dx":0.0025,"nx":19,"ny":19,"refTime":"2026-05-05T09:00:00:Z","depth":0,"parameterNumber":3,"parameterNumberName":"V-component_of_WINDS"},"data":[0,0,0,7.3247,7.3249,7.3298,7.3298,7.3382,7.3382,0,0,0,0,0,0,0,0,0,0,0,7.3246,7.3247,7.3247,7.3249,7.3298,7.3298,7.3381,7.3382,0,0,0,0,0,0,0,0,0,0,0,7.3245,7.3247,7.3248,7.3249,7.3298,7.3298,7.3381,7.3336,0,0,0,0,0,0,0,0,0,0,7.3285,7.3297,7.3246,7.3248,7.3249,7.3298,7.3298,7.3334,7.3339,7.3368,0,7.3399,0,7.3392,7.3389,7.339,0,0,0,7.3238,7.3293,7.3294,7.3248,7.325,7.3298,7.3273,7.3337,7.3343,7.3375,7.34,7.3402,7.3394,7.339,7.3391,7.3597,7.3598,0,0,7.3236,7.3262,7.329,7.3299,7.3294,7.3271,7.3275,7.334,7.3368,7.34,7.3404,7.3395,7.3391,7.3392,7.3595,7.3597,0,0,0,7.3235,7.326,7.3259,7.3296,7.3303,7.3273,7.3277,7.3365,7.3362,7.3404,7.3396,7.3391,7.3393,7.3594,7.3596,7.3695,0,0,0,7.3233,7.326,7.3259,7.3275,7.3303,7.3335,7.3301,7.3358,7.3364,7.3396,7.3391,7.3394,7.3592,7.3595,7.3689,7.3737,0,0,0,7.3238,7.326,7.3272,7.3277,7.3299,7.3333,7.3334,7.3359,7.336,7.339,7.3394,7.3591,7.3594,7.3683,7.3728,7.38,0,0,0,7.3251,7.3358,7.3274,7.339,7.3299,7.3394,7.3334,7.3403,7.344,7.3392,7.3592,7.3596,7.3681,7.3722,7.3795,7.3867,7.3899,0,0,7.34,7.3377,7.3443,7.3369,7.3487,7.3385,7.3516,7.3524,7.3502,7.3566,7.3571,7.3691,7.3727,7.3799,7.4069,7.4095,0,0,0,7.3499,7.3547,7.3572,7.361,7.3621,7.3633,7.3619,7.3623,7.3676,7.3541,7.3735,7.3756,7.3797,7.383,7.3852,7.3886,7.3612,7.3612,7.3611,7.3747,7.3715,7.3822,7.3797,7.3834,7.3819,7.3847,7.3848,7.3803,7.3849,7.3869,7.4037,7.4077,7.4093,7.4129,7.3903,7.3903,7.3904,7.3904,7.3964,7.4027,7.3966,7.4049,7.4014,7.4082,7.4072,7.4038,7.4096,7.4019,7.4053,7.3974,7.4123,7.4152,7.3911,7.391,7.3909,7.3908,7.3908,7.4124,7.4149,7.4152,7.4205,7.4249,7.4217,7.4277,7.4242,7.4209,7.4243,7.426,7.4258,7.4253,7.4253,7.4254,7.4255,7.4255,7.4255,7.4256,7.4289,7.429,7.4345,7.4366,7.4387,7.4409,7.4396,7.4414,7.4426,7.4396,7.4395,7.4347,7.4143,7.4093,7.4265,7.4263,7.4262,7.4261,7.4261,7.4522,7.4464,7.455,7.4571,7.4593,7.464,7.4594,7.4636,7.4646,7.4676,7.462,7.4475,7.4448,7.443,7.4388,7.4626,7.4626,7.4626,7.4626,7.4658,7.4641,7.4722,7.4758,7.4788,7.4756,7.4854,7.4845,7.4826,7.483,7.479,7.4732,7.4716,7.4698,7.4675,7.4635,7.4931,7.4931,7.4931,7.48,7.4785,7.4875,7.4858,7.4873,7.4886,7.4977,7.502,7.4986,7.4943,7.4833,7.482,7.4726,7.4696,7.4652,7.4616,7.4543,0,0]}]]